User: anonymous   Login
Location: Cranbrook Institute of Science
(42.5830°N, 83.2450°W)
Time: 21:12:54
(UTC-04:00)
Language:

CZ-4B R/B - Orbit

View from above orbital plane
View from above orbital plane
View from above satellite
View from above satellite

Ground track
Ground track

The orbit data is extracted from the following two-line orbital elements,

1 29093U 06015B   15142.16002881  .00008105  00000-0  24494-3 0  9994
2 29093 097.4940 228.9185 0079930 144.2692 276.8718 15.31335038501321
Epoch (UTC): 22 May 2015 03:50:26
Eccentricity: 0.0079930
inclination: 97.4940°
perigee height: 417 km
apogee height: 526 km
right ascension of ascending node: 228.9185°
argument of perigee: 144.2692°
revolutions per day: 15.31335038
mean anomaly at epoch: 276.8718°
orbit number at epoch: 50132

The dashed part of the orbit path shows where the satellite is in the earth's shadow,  

DLR